This is the latest recevied weather packets stored in our database for station/object N3WPH. If no packets are shown the sender has not sent any weather packets the latest 10 day(s).
| Time | Temp. | Humidity | Pressure | Rain* | Wind** | Luminosity | Snow |
|---|---|---|---|---|---|---|---|
| 1777661181 | 15.56° C | 42% | 1010.5 hPa | 0 mm | - | 360 W/m² | - |
| 1777660876 | 15.56° C | 46% | 1010.8 hPa | 0 mm | - | 655 W/m² | - |
| 1777660573 | 15° C | 42% | 1010.7 hPa | 0 mm | - | 350 W/m² | - |
| 1777660270 | 16.11° C | 41% | 1010.8 hPa | 0 mm | - | 269 W/m² | - |
| 1777659966 | 17.22° C | 41% | 1010.7 hPa | 0 mm | - | 791 W/m² | - |
| 1777659663 | 16.67° C | 42% | 1010.6 hPa | 0 mm | - | 793 W/m² | - |
| 1777659360 | 16.67° C | 41% | 1010.8 hPa | 0 mm | - | 805 W/m² | - |
| 1777659057 | 15.56° C | 48% | 1010.5 hPa | 0 mm | - | 788 W/m² | - |
| 1777658755 | 16.11° C | 41% | 1010.8 hPa | 0 mm | - | 778 W/m² | - |
| 1777658450 | 16.67° C | 43% | 1010.6 hPa | 0 mm | - | 796 W/m² | - |
| 1777658148 | 15.56° C | 45% | 1011.1 hPa | 0 mm | - | 816 W/m² | - |
| 1777657844 | 16.11° C | 45% | 1011 hPa | 0 mm | - | 846 W/m² | - |
| 1777657541 | 16.11° C | 48% | 1011.2 hPa | 0 mm | - | 819 W/m² | - |
| 1777657239 | 15° C | 50% | 1011.2 hPa | 0 mm | - | 833 W/m² | - |
| 1777656936 | 15° C | 51% | 1011.2 hPa | 0 mm | - | 801 W/m² | - |
| 1777656633 | 14.44° C | 51% | 1011.2 hPa | 0 mm | - | 802 W/m² | - |
| 1777656328 | 15° C | 46% | 1011.2 hPa | 0 mm | - | 788 W/m² | - |
| 1777656024 | 14.44° C | 45% | 1011.1 hPa | 0 mm | - | 787 W/m² | - |
| 1777655720 | 14.44° C | 47% | 1011.3 hPa | 0 mm | - | 787 W/m² | - |
| 1777655417 | 14.44° C | 46% | 1011.2 hPa | 0 mm | - | 790 W/m² | - |
| 1777655114 | 14.44° C | 53% | 1011.6 hPa | 0 mm | - | 788 W/m² | - |
| 1777654811 | 13.33° C | 52% | 1011.6 hPa | 0 mm | - | 788 W/m² | - |
| 1777654509 | 14.44° C | 46% | 1011.6 hPa | 0 mm | - | 788 W/m² | - |
| 1777654206 | 14.44° C | 50% | 1011.9 hPa | 0 mm | - | 787 W/m² | - |
| 1777653904 | 13.33° C | 55% | 1011.9 hPa | 0 mm | - | 787 W/m² | - |
* Rain latest hour (hover to see other rain measurements)
** Current wind speed in m/s (hover to see current wind gust speed)